Pompano Beach, FL

1:28 AM EDT on April 20, 2018 (GMT -0400)
Pompano Beach

Weather History for KPMP - February, 2012

Change the Weather History Date:

Wednesday, February 1, 2012

  Actual Average Record
Temperature  
Mean Temperature 74 °F -  
Max Temperature 78 °F 77 °F 86 °F (1991)
Min Temperature 71 °F 58 °F 38 °F (1977)
Cooling Degree Days 10    
Growing Degree Days 24 (Base 50)    
Moisture  
Dew Point 65 °F    
Average Humidity 73    
Maximum Humidity 82    
Minimum Humidity 62    
Precipitation  
Precipitation 0.00 in - - ()
Sea Level Pressure  
Sea Level Pressure 30.21 in    
Wind  
Wind Speed 12 mph (East)    
Max Wind Speed 14 mph    
Max Gust Speed 20 mph    
Visibility 10 miles    
Events      
Averages and records for this station are not official NWS values.
T = Trace of Precipitation, MM = Missing Value Source: NWS Daily Summary

Daily Weather History Graph

Daily Weather History Graph

Search for Another Location

Airport or City:

Astronomy

Feb. 01, 2012 Rise Set
Actual Time 7:05 AM EST 6:03 PM EST
Civil Twilight 6:40 AM EST 6:27 PM EST
Nautical Twilight 6:13 AM EST 6:54 PM EST
Astronomical Twilight 5:45 AM EST 7:22 PM EST
Moon 12:38 PM EST (2/1) 1:42 AM EST (2/1)
Length of Visible Light 11h 46m
Length of Day
10h 58m
Waxing Gibbous, 64% of the Moon is Illuminated
Feb 1
Waxing Gibbous
Feb 7
Full
Feb 14
Last Quarter
Feb 21
New
Feb 29
First Quarter

Hourly Weather History & Observations

Time (EST) Temp. Dew Point Humidity Pressure Visibility Wind Dir Wind Speed Gust Speed Precip Events Conditions
12:01 AM 73.4 °F 64.4 °F 73% 30.24 in 10.0 mi East 12.7 mph - N/A   Overcast
12:53 AM 73.0 °F 64.9 °F 76% 30.24 in 10.0 mi East 12.7 mph - N/A   Mostly Cloudy
1:53 AM 73.0 °F 66.0 °F 79% 30.23 in 10.0 mi ENE 16.1 mph - 0.00 in   Overcast
2:31 AM 73.4 °F 64.4 °F 73% 30.21 in 10.0 mi East 10.4 mph - N/A   Mostly Cloudy
2:53 AM 73.0 °F 63.0 °F 71% 30.22 in 10.0 mi East 11.5 mph - N/A   Overcast
4:08 AM 73.4 °F 64.4 °F 73% 30.21 in 10.0 mi East 13.8 mph 19.6 mph N/A   Overcast
4:53 AM 72.0 °F 64.9 °F 78% 30.21 in 10.0 mi East 11.5 mph - N/A   Mostly Cloudy
5:07 AM 71.6 °F 64.4 °F 78% 30.21 in 10.0 mi East 12.7 mph - N/A   Scattered Clouds
5:48 AM 71.6 °F 64.4 °F 78% 30.21 in 10.0 mi East 12.7 mph - N/A   Mostly Cloudy
5:53 AM 72.0 °F 64.9 °F 78% 30.22 in 10.0 mi East 11.5 mph - N/A   Mostly Cloudy
6:53 AM 72.0 °F 64.9 °F 78% 30.23 in 10.0 mi East 12.7 mph - N/A   Mostly Cloudy
7:53 AM 73.0 °F 64.0 °F 73% 30.24 in 10.0 mi East 13.8 mph - N/A   Scattered Clouds
8:53 AM 75.0 °F 64.9 °F 71% 30.25 in 10.0 mi East 12.7 mph - N/A   Scattered Clouds
9:53 AM 75.0 °F 64.9 °F 71% 30.25 in 10.0 mi East 12.7 mph - N/A   Scattered Clouds
10:53 AM 77.0 °F 64.0 °F 64% 30.25 in 10.0 mi East 12.7 mph - N/A   Mostly Cloudy
11:53 AM 78.1 °F 64.9 °F 64% 30.23 in 10.0 mi East 10.4 mph - N/A   Partly Cloudy
12:53 PM 78.1 °F 64.0 °F 62% 30.20 in 10.0 mi East 12.7 mph - N/A   Scattered Clouds
1:53 PM 78.1 °F 64.9 °F 64% 30.18 in 10.0 mi East 11.5 mph - N/A   Partly Cloudy
2:53 PM 78.1 °F 66.0 °F 66% 30.17 in 10.0 mi East 10.4 mph - N/A   Scattered Clouds
3:53 PM 75.9 °F 66.0 °F 71% 30.16 in 10.0 mi East 13.8 mph - N/A   Scattered Clouds
4:53 PM 75.9 °F 66.0 °F 71% 30.16 in 10.0 mi East 10.4 mph - N/A   Partly Cloudy
6:53 PM 75.0 °F 66.0 °F 73% 30.16 in 10.0 mi East 9.2 mph - N/A   Scattered Clouds
7:53 PM 73.9 °F 68.0 °F 82% 30.17 in 10.0 mi ESE 11.5 mph - 0.00 in   Mostly Cloudy
8:53 PM 73.9 °F 68.0 °F 82% 30.18 in 10.0 mi East 10.4 mph - 0.00 in   Mostly Cloudy
9:53 PM 73.9 °F 68.0 °F 82% 30.17 in 10.0 mi ESE 9.2 mph - N/A   Mostly Cloudy
10:53 PM 75.0 °F 66.9 °F 76% 30.18 in 10.0 mi ESE 9.2 mph - N/A   Partly Cloudy
11:53 PM 73.9 °F 66.9 °F 79% 30.17 in 10.0 mi SE 12.7 mph - N/A   Partly Cloudy